CZ-3C DEB, 40819

Orbit data source: Space-Track

CZ-3C DEB, 40819 is space debris in HEO originally from a launch on Sun, 31 Oct 2010 UTC launched from the Xichang Space Center, China (XSC). Debris objects in space refer to the collection of defunct objects orbiting the Earth. Examples of debris include non-operational satellites, rocket bodies, and fragments generated from explosions, collisions, or faulty payload assembly.

Loading next visibility...
Identifier
40819, 2010-057AL
Orbit
HEO
Last TLE update
22 hours ago
Origin
Manufacturer
CALT
Mission
Spacecraft
Bus & Motor
Unknown
Mass
Unknown
Launch date (UTC)
2010-10-31 (15 years ago)
Launch vehicle
Unknown
Launch site
Xichang Space Center, China (XSC)
Object type
Payload
Rocket body
Debris
Shape & HBR
Unknown
Radar Cross Section
Medium (>0.1 m² and <1 m²)

Expand to show TLE details & history

TLE from 22 hours ago
0 CZ-3C DEB
1 40819U 10057AL  25128.30043002  .00000464  00000-0  49222-2 0  9990
2 40819  19.9943 133.1507 7132757  91.6942 343.6750  2.31846906 87284
Epoch: 2025-05-08T07:12Z
Definitive object data (Epoch: 2025-05-08T07:12:37.153Z)
Latitude
-0.00007°
Longitude
158.68113°
Altitude
5,675.655 km
Speed
7.043 km/s
True Right ascension
08h 52m 50s
True Declination
0° 00' 00"
Sunlit
Object was in daylight at TLE epoch
Visualization TLE readout
Latitude
-11.44723°
Longitude
12.08127°
Altitude
12,992.346 km
Speed
4.962 km/s
Apparent Right ascension
23h 35m 14s
Apparent Declination
-18° 52' 55"
Sunlit
Object is in daylight
Visualization observer readout
Local Sidereal Time
13:31:29
Azimuth
58.428° ENE
Elevation
-57.35°
Doppler factor
1
Orbital elements
Apogee altitude
34,943.16 km
Perigee altitude
537.166 km
Semi-major axis
24,118.3 km
Eccentricity
0.7132757
Inclination
19.9943°
RAAN
133.1507°
Arg. of periapsis
91.6942°
True anomaly
268.65617°
Mean anomaly
343.675°
Eccentric anomaly
314.55223°
Mean motion
0.57946 °/min
BSTAR
0.0049222
Orbital period
621.27 mins
Loading maneuver chart data...
Loading SW <> Apogee altitude chart data...
Loading historical data...
Loading historical data...
Loading historical data...
Loading historical data...
Loading historical data...
Loading historical data...
Loading historical data...

CZ-3C DEB Visibility forecast

Observer location: undefined°, undefined°

Span
Click to sort rows by Start time (UTC) header in descending order
Start Az.
Max El. time (UTC)
Max El. Az.
Max El.
End time (UTC)
End Az.
571 mins2025-05-09 15:16:50.209Z218.239° SW2025-05-09 17:38:50.209Z184.264° SSW20.068°2025-05-10 00:47:50.209Z145.369° SSE
|